Location: D�derode
(51.8092°N, 10.1065°E)
Time: 16:30:52
(UTC+00:00)

BREEZE-M DEB (TANK) - Pass Details

Date: 16 April 2021
Orbit: 315 x 13085 km, 49.6° (Epoch: 11 May)

Event Time Altitude Azimuth Distance (km) Brightness Sun altitude
Rises 22:52:20 0° 256° (WSW) 11,412 9.4 -27.5°
Reaches altitude 10° 23:03:48 10° 257° (WSW) 8,041 8.6 -27.6°
Maximum altitude 23:22:43 77° 177° (S) 1,393 4.5 -27.7°
Drops below altitude 10° 23:27:29 10° 91° (E) 2,247 5.9 -27.7°
Enters shadow 23:27:46 - 91° (E) 2,365 6.0 -27.7°
